N3898R X59-KMLB

Flight info

Callsign N3898R
Flight time N/A
Altitude 2000
Route VFR
Aircraft C172/L-SDE3/L

Departure

Time N/A
Airport X59

Arrival

Time 2026-04-26 13:27
Airport Melbourne Orlando International Airport (KMLB)
Time Latitude Longitude Altitude Speed Heading
2026-04-26 13:27 27.96280 -80.56173 23 ft 0 kts 131°
2026-04-26 13:28 27.96279 -80.56171 23 ft 0 kts 130°
2026-04-26 13:28 27.96276 -80.56155 23 ft 6 kts 41°
2026-04-26 13:28 27.96311 -80.56075 23 ft 14 kts 65°
2026-04-26 13:29 27.96375 -80.55978 23 ft 15 kts 105°
2026-04-26 13:29 27.96322 -80.55918 23 ft 16 kts 142°
2026-04-26 13:29 27.96196 -80.55814 23 ft 15 kts 198°
2026-04-26 13:29 27.96176 -80.55830 23 ft 0 kts 225°
2026-04-26 13:31 27.96173 -80.55830 23 ft 0 kts 62°
2026-04-26 13:31 27.96189 -80.55791 23 ft 10 kts 81°
2026-04-26 13:32 27.96136 -80.55724 23 ft 15 kts 136°
2026-04-26 13:32 27.96049 -80.55635 24 ft 19 kts 139°
2026-04-26 13:32 27.96006 -80.55592 24 ft 0 kts 140°
2026-04-26 13:32 27.95968 -80.55578 24 ft 12 kts 206°
2026-04-26 13:33 27.95961 -80.55714 23 ft 41 kts 270°
2026-04-26 13:33 27.95966 -80.56149 71 ft 70 kts 266°
2026-04-26 13:33 27.95999 -80.56666 305 ft 64 kts 267°
2026-04-26 13:33 27.96011 -80.57003 410 ft 68 kts 263°
2026-04-26 13:34 27.95964 -80.57340 475 ft 72 kts 233°
2026-04-26 13:34 27.95662 -80.57514 526 ft 82 kts 188°
2026-04-26 13:34 27.95164 -80.57391 750 ft 79 kts 149°
2026-04-26 13:34 27.95039 -80.57005 852 ft 90 kts 89°
2026-04-26 13:35 27.95115 -80.56084 876 ft 100 kts 91°
2026-04-26 13:35 27.95133 -80.55315 856 ft 105 kts 92°
2026-04-26 13:35 27.95154 -80.54593 770 ft 90 kts 92°
2026-04-26 13:35 27.95304 -80.54157 664 ft 86 kts 33°
2026-04-26 13:36 27.95807 -80.54142 505 ft 78 kts 340°
2026-04-26 13:36 27.95970 -80.54468 330 ft 66 kts 259°
2026-04-26 13:36 27.95960 -80.54889 198 ft 60 kts 262°
2026-04-26 13:36 27.95961 -80.55290 70 ft 55 kts 262°
2026-04-26 13:37 27.95958 -80.55630 24 ft 37 kts 270°
2026-04-26 13:37 27.95965 -80.55973 24 ft 66 kts 267°
2026-04-26 13:37 27.95971 -80.56407 136 ft 73 kts 265°
2026-04-26 13:37 27.95970 -80.56940 367 ft 68 kts 265°
2026-04-26 13:38 27.95980 -80.57458 571 ft 66 kts 267°
2026-04-26 13:38 27.96130 -80.57922 752 ft 71 kts 304°
2026-04-26 13:38 27.96607 -80.58135 888 ft 84 kts 352°
2026-04-26 13:38 27.97162 -80.57909 1057 ft 88 kts 14°
2026-04-26 13:39 27.97674 -80.57877 1114 ft 98 kts 355°
2026-04-26 13:39 27.98343 -80.57870 1119 ft 111 kts 356°
2026-04-26 13:39 27.98985 -80.57864 1113 ft 117 kts 357°
2026-04-26 13:39 27.99709 -80.57858 1111 ft 121 kts 357°
2026-04-26 13:40 28.00432 -80.57852 1108 ft 121 kts 357°
2026-04-26 13:40 28.01130 -80.57846 1106 ft 117 kts 357°
2026-04-26 13:40 28.01865 -80.57838 1106 ft 115 kts 356°
2026-04-26 13:40 28.02575 -80.57832 1105 ft 114 kts 355°
2026-04-26 13:41 28.03211 -80.57931 1071 ft 111 kts 341°
2026-04-26 13:41 28.03805 -80.58122 918 ft 116 kts 341°
2026-04-26 13:41 28.04433 -80.58312 877 ft 107 kts 338°
2026-04-26 13:41 28.05038 -80.58521 848 ft 108 kts 338°
2026-04-26 13:42 28.05632 -80.58745 818 ft 109 kts 335°
2026-04-26 13:42 28.06228 -80.58990 788 ft 109 kts 334°
2026-04-26 13:42 28.06866 -80.59267 816 ft 105 kts 334°
2026-04-26 13:42 28.07453 -80.59533 810 ft 105 kts 332°
2026-04-26 13:43 28.08020 -80.59805 777 ft 108 kts 332°
2026-04-26 13:43 28.08603 -80.60072 747 ft 109 kts 333°
2026-04-26 13:43 28.09290 -80.60412 745 ft 101 kts 328°
2026-04-26 13:43 28.09981 -80.60847 615 ft 103 kts 320°
2026-04-26 13:44 28.10441 -80.61261 580 ft 102 kts 312°
2026-04-26 13:44 28.10748 -80.61958 448 ft 88 kts 269°
2026-04-26 13:44 28.10722 -80.62643 392 ft 71 kts 262°
2026-04-26 13:44 28.10697 -80.63232 281 ft 60 kts 259°
2026-04-26 13:45 28.10665 -80.63747 169 ft 55 kts 263°
2026-04-26 13:45 28.10635 -80.64176 54 ft 53 kts 257°
2026-04-26 13:45 28.10615 -80.64510 24 ft 34 kts 263°
2026-04-26 13:45 28.10605 -80.64732 25 ft 25 kts 268°
2026-04-26 13:46 28.10642 -80.64851 27 ft 13 kts 345°
2026-04-26 13:46 28.10672 -80.64857 27 ft 0 kts 326°
2026-04-26 13:47 28.10672 -80.64858 27 ft 1 kts 325°
2026-04-26 13:47 28.10687 -80.64882 27 ft 12 kts 282°
2026-04-26 13:47 28.10722 -80.64958 27 ft 15 kts 262°
2026-04-26 13:47 28.10717 -80.65083 28 ft 18 kts 268°
2026-04-26 13:48 28.10720 -80.65215 29 ft 12 kts 332°
2026-04-26 13:48 28.10796 -80.65221 28 ft 12 kts
2026-04-26 13:48 28.10821 -80.65224 28 ft 0 kts 353°
2026-04-26 13:50 28.10831 -80.65225 29 ft 0 kts 355°
2026-04-26 13:50 28.10840 -80.65230 29 ft 4 kts 278°
2026-04-26 13:51 28.10835 -80.65283 30 ft 8 kts 212°
2026-04-26 13:51 28.10784 -80.65284 30 ft 0 kts 244°
2026-04-26 13:53 28.10746 -80.65286 30 ft 15 kts 177°
2026-04-26 13:54 28.10695 -80.65286 30 ft 0 kts 180°
2026-04-26 13:54 28.10686 -80.65285 30 ft 6 kts 174°
2026-04-26 13:55 28.10671 -80.65060 28 ft 26 kts 86°
2026-04-26 13:55 28.10681 -80.64909 27 ft 32 kts 87°
2026-04-26 13:55 28.10713 -80.64252 23 ft 37 kts 85°
2026-04-26 13:56 28.10668 -80.64143 23 ft 14 kts 181°
2026-04-26 13:56 28.10624 -80.64262 23 ft 39 kts 272°
2026-04-26 13:56 28.10607 -80.64681 120 ft 61 kts 259°
2026-04-26 13:56 28.10576 -80.65147 250 ft 68 kts 260°
2026-04-26 13:57 28.10544 -80.65538 420 ft 65 kts 258°
2026-04-26 13:57 28.10498 -80.66004 629 ft 61 kts 258°
2026-04-26 13:57 28.10427 -80.66404 812 ft 57 kts 238°
2026-04-26 13:57 28.10117 -80.66660 892 ft 71 kts 196°
2026-04-26 13:58 28.09627 -80.66627 979 ft 84 kts 173°
2026-04-26 13:58 28.09079 -80.66488 1087 ft 91 kts 171°
2026-04-26 13:58 28.08501 -80.66333 1084 ft 97 kts 171°
2026-04-26 13:58 28.08251 -80.66267 1083 ft 99 kts 171°
2026-04-26 13:59 28.07960 -80.66190 1082 ft 101 kts 171°
2026-04-26 13:59 28.07313 -80.66019 1081 ft 103 kts 171°
2026-04-26 13:59 28.06643 -80.65845 1080 ft 103 kts 171°
2026-04-26 14:00 28.04928 -80.65362 1079 ft 102 kts 169°
2026-04-26 14:00 28.04313 -80.65186 1079 ft 102 kts 169°
2026-04-26 14:00 28.04080 -80.65120 1080 ft 102 kts 169°
2026-04-26 14:01 28.03503 -80.64955 1080 ft 102 kts 169°
2026-04-26 14:01 28.03082 -80.64834 1080 ft 102 kts 169°
2026-04-26 14:01 28.02650 -80.64710 1080 ft 102 kts 169°
2026-04-26 14:01 28.02047 -80.64537 1080 ft 102 kts 169°
2026-04-26 14:02 28.01623 -80.64416 1080 ft 102 kts 169°
2026-04-26 14:02 28.01236 -80.64304 1080 ft 102 kts 169°
2026-04-26 14:02 28.00798 -80.64150 1077 ft 104 kts 159°
2026-04-26 14:02 28.00405 -80.63782 1079 ft 107 kts 134°
2026-04-26 14:03 28.00145 -80.63372 1081 ft 108 kts 128°
2026-04-26 14:03 27.99758 -80.62675 1080 ft 108 kts 126°
2026-04-26 14:03 27.99348 -80.61912 1080 ft 109 kts 126°
2026-04-26 14:03 27.98938 -80.61140 1212 ft 102 kts 125°
2026-04-26 14:04 27.98619 -80.60272 1386 ft 103 kts 103°
2026-04-26 14:04 27.98513 -80.59326 1561 ft 102 kts 99°
2026-04-26 14:04 27.98419 -80.58346 1553 ft 110 kts 99°
2026-04-26 14:04 27.98187 -80.57377 1539 ft 111 kts 125°
2026-04-26 14:05 27.97685 -80.56513 1482 ft 112 kts 144°
2026-04-26 14:05 27.96921 -80.56093 1444 ft 108 kts 169°
2026-04-26 14:05 27.96184 -80.56001 1513 ft 100 kts 180°
2026-04-26 14:05 27.95594 -80.55982 1497 ft 101 kts 183°
2026-04-26 14:06 27.94971 -80.55978 1300 ft 97 kts 182°
2026-04-26 14:06 27.94336 -80.55981 1054 ft 100 kts 185°
2026-04-26 14:06 27.93827 -80.56312 993 ft 93 kts 242°
2026-04-26 14:06 27.93877 -80.56840 906 ft 103 kts 301°
2026-04-26 14:07 27.94301 -80.57075 849 ft 112 kts 354°
2026-04-26 14:07 27.94864 -80.56779 753 ft 113 kts 37°
2026-04-26 14:07 27.95110 -80.56127 785 ft 101 kts 87°
2026-04-26 14:07 27.95159 -80.55505 785 ft 105 kts 88°
2026-04-26 14:08 27.95190 -80.54729 781 ft 90 kts 93°
2026-04-26 14:08 27.95343 -80.54129 629 ft 87 kts 47°
2026-04-26 14:08 27.95816 -80.53979 516 ft 79 kts 337°
2026-04-26 14:08 27.96022 -80.54292 411 ft 67 kts 262°
2026-04-26 14:09 27.95982 -80.54668 306 ft 62 kts 260°
2026-04-26 14:09 27.95966 -80.55056 182 ft 57 kts 261°
2026-04-26 14:09 27.95961 -80.55444 40 ft 55 kts 261°
2026-04-26 14:09 27.95962 -80.55741 23 ft 35 kts 269°
2026-04-26 14:10 27.95961 -80.55959 23 ft 29 kts 269°
2026-04-26 14:10 27.95960 -80.56179 21 ft 34 kts 269°
2026-04-26 14:10 27.95966 -80.56432 20 ft 28 kts 263°
2026-04-26 14:10 27.96001 -80.56445 20 ft 15 kts 95°
2026-04-26 14:11 27.96189 -80.56190 23 ft 19 kts 26°
2026-04-26 14:11 27.96212 -80.56195 23 ft 0 kts 314°
2026-04-26 14:34 27.96234 -80.56179 23 ft 0 kts 314°
2026-04-26 14:34 27.96225 -80.56180 23 ft 0 kts 314°
2026-04-26 14:35 27.96227 -80.56181 23 ft 0 kts 313°
2026-04-26 14:41 27.96245 -80.56186 23 ft 8 kts 36°
2026-04-26 14:42 27.96302 -80.56103 23 ft 12 kts 87°
2026-04-26 14:42 27.96348 -80.56034 23 ft 13 kts 42°
2026-04-26 14:42 27.96354 -80.56027 23 ft 0 kts 44°
2026-04-26 14:43 27.96380 -80.55975 23 ft 14 kts 111°
2026-04-26 14:43 27.96301 -80.55894 23 ft 18 kts 139°
2026-04-26 14:43 27.96190 -80.55819 23 ft 17 kts 219°
2026-04-26 14:43 27.96180 -80.55834 23 ft 0 kts 247°
2026-04-26 14:45 27.96180 -80.55835 23 ft 2 kts 246°
2026-04-26 14:45 27.96182 -80.55837 23 ft 7 kts 77°
2026-04-26 14:45 27.96188 -80.55809 23 ft 0 kts 71°
2026-04-26 14:46 27.96162 -80.55754 24 ft 18 kts 143°
2026-04-26 14:46 27.96048 -80.55634 24 ft 22 kts 137°
2026-04-26 14:46 27.96009 -80.55592 24 ft 0 kts 132°
2026-04-26 14:49 27.96008 -80.55592 24 ft 0 kts 134°
2026-04-26 14:54 27.96008 -80.55591 24 ft 0 kts 134°
2026-04-26 14:57 27.95967 -80.55578 24 ft 11 kts 225°
2026-04-26 14:57 27.95960 -80.55747 23 ft 46 kts 269°
2026-04-26 14:57 27.95969 -80.56211 105 ft 69 kts 265°
2026-04-26 14:58 27.95980 -80.56668 277 ft 68 kts 263°
2026-04-26 14:58 27.95975 -80.56948 376 ft 69 kts 261°
2026-04-26 14:58 27.95866 -80.57299 473 ft 71 kts 223°
2026-04-26 14:58 27.95442 -80.57356 615 ft 78 kts 177°
2026-04-26 14:59 27.94989 -80.57084 841 ft 78 kts 137°
2026-04-26 14:59 27.94967 -80.56427 872 ft 97 kts 87°
2026-04-26 14:59 27.95048 -80.55671 822 ft 104 kts 86°
2026-04-26 14:59 27.95098 -80.55141 804 ft 102 kts 88°
2026-04-26 15:00 27.95358 -80.54240 584 ft 92 kts 33°
2026-04-26 15:00 27.95836 -80.54203 446 ft 81 kts 343°
2026-04-26 15:00 27.96007 -80.54499 300 ft 64 kts 256°
2026-04-26 15:00 27.95953 -80.54898 195 ft 60 kts 261°
2026-04-26 15:01 27.95968 -80.55258 104 ft 55 kts 264°
2026-04-26 15:01 27.95957 -80.55593 24 ft 42 kts 273°
2026-04-26 15:01 27.95958 -80.55955 71 ft 62 kts 261°
2026-04-26 15:01 27.95952 -80.56438 254 ft 64 kts 264°
2026-04-26 15:02 27.96003 -80.56901 459 ft 60 kts 263°
2026-04-26 15:02 27.96010 -80.57319 592 ft 67 kts 276°
2026-04-26 15:02 27.96231 -80.57713 720 ft 77 kts 312°
2026-04-26 15:02 27.96689 -80.57948 857 ft 86 kts 340°
2026-04-26 15:03 27.97203 -80.58046 979 ft 92 kts 347°
2026-04-26 15:03 27.97852 -80.58118 1060 ft 102 kts 352°
2026-04-26 15:03 27.98558 -80.58156 1063 ft 110 kts 353°
2026-04-26 15:03 27.99156 -80.58186 1059 ft 113 kts 353°
2026-04-26 15:04 27.99715 -80.58215 1057 ft 114 kts 353°
2026-04-26 15:04 28.00481 -80.58255 1056 ft 115 kts 353°
2026-04-26 15:04 28.01114 -80.58289 1055 ft 116 kts 353°
2026-04-26 15:04 28.01868 -80.58329 1054 ft 116 kts 353°
2026-04-26 15:05 28.02576 -80.58145 1048 ft 114 kts 30°
2026-04-26 15:05 28.03002 -80.57821 972 ft 119 kts 21°
2026-04-26 15:05 28.03694 -80.57801 891 ft 118 kts 338°
2026-04-26 15:05 28.04291 -80.58044 932 ft 116 kts 335°
2026-04-26 15:06 28.05029 -80.58347 914 ft 118 kts 334°
2026-04-26 15:06 28.05682 -80.58594 873 ft 118 kts 335°
2026-04-26 15:06 28.06254 -80.58830 837 ft 118 kts 333°
2026-04-26 15:06 28.06873 -80.59095 797 ft 118 kts 333°
2026-04-26 15:07 28.07811 -80.59500 756 ft 117 kts 333°
2026-04-26 15:07 28.08337 -80.59727 738 ft 117 kts 333°
2026-04-26 15:07 28.08941 -80.60003 717 ft 115 kts 329°
2026-04-26 15:08 28.09567 -80.60344 695 ft 114 kts 325°
2026-04-26 15:08 28.10092 -80.60764 674 ft 112 kts 315°
2026-04-26 15:08 28.10560 -80.61207 652 ft 108 kts 308°
2026-04-26 15:08 28.10762 -80.61726 579 ft 91 kts 264°
2026-04-26 15:09 28.10738 -80.62198 503 ft 91 kts 264°
2026-04-26 15:09 28.10722 -80.62591 402 ft 94 kts 264°
2026-04-26 15:09 28.10693 -80.63191 312 ft 78 kts 263°
2026-04-26 15:09 28.10673 -80.63653 230 ft 65 kts 260°
2026-04-26 15:10 28.10640 -80.63993 119 ft 59 kts 259°
2026-04-26 15:10 28.10629 -80.64219 48 ft 54 kts 263°
2026-04-26 15:10 28.10611 -80.64597 24 ft 56 kts 264°
2026-04-26 15:10 28.10589 -80.64995 151 ft 63 kts 262°
2026-04-26 15:11 28.10571 -80.65440 261 ft 70 kts 262°
2026-04-26 15:11 28.10547 -80.65897 479 ft 65 kts 260°
2026-04-26 15:11 28.10658 -80.66307 630 ft 73 kts 301°
2026-04-26 15:11 28.11093 -80.66500 725 ft 90 kts 354°
2026-04-26 15:12 28.11605 -80.66423 872 ft 93 kts
2026-04-26 15:12 28.12077 -80.66162 904 ft 104 kts 49°
2026-04-26 15:12 28.12218 -80.65554 868 ft 104 kts 89°
2026-04-26 15:12 28.12251 -80.64811 833 ft 108 kts 91°
2026-04-26 15:13 28.12275 -80.64072 791 ft 98 kts 90°
2026-04-26 15:13 28.12147 -80.63511 716 ft 77 kts 144°
2026-04-26 15:13 28.11784 -80.63349 587 ft 68 kts 178°
2026-04-26 15:13 28.11394 -80.63261 451 ft 64 kts 177°
2026-04-26 15:14 28.11058 -80.63348 289 ft 58 kts 216°
2026-04-26 15:14 28.10799 -80.63587 169 ft 53 kts 235°
2026-04-26 15:14 28.10653 -80.63899 77 ft 46 kts 256°
2026-04-26 15:14 28.10633 -80.64187 33 ft 39 kts 260°
2026-04-26 15:15 28.10616 -80.64420 23 ft 29 kts 264°
2026-04-26 15:15 28.10591 -80.64726 56 ft 54 kts 260°
2026-04-26 15:15 28.10583 -80.65106 178 ft 61 kts 266°
2026-04-26 15:15 28.10596 -80.65399 301 ft 61 kts 267°
2026-04-26 15:16 28.10603 -80.65818 484 ft 59 kts 260°
2026-04-26 15:16 28.10552 -80.66283 563 ft 71 kts 258°
2026-04-26 15:16 28.10669 -80.66705 721 ft 77 kts 304°
2026-04-26 15:16 28.10895 -80.66853 790 ft 86 kts 338°
2026-04-26 15:17 28.11482 -80.66879 897 ft 96 kts 351°
2026-04-26 15:17 28.11877 -80.66753 952 ft 106 kts 34°
2026-04-26 15:17 28.12170 -80.65868 966 ft 109 kts 87°
2026-04-26 15:17 28.12213 -80.65132 930 ft 113 kts 89°
2026-04-26 15:18 28.12221 -80.64588 939 ft 112 kts 96°
2026-04-26 15:18 28.12196 -80.63853 960 ft 112 kts 93°
2026-04-26 15:18 28.12210 -80.63165 925 ft 106 kts 91°
2026-04-26 15:18 28.12179 -80.62503 841 ft 89 kts 119°
2026-04-26 15:19 28.11880 -80.62221 780 ft 73 kts 176°
2026-04-26 15:19 28.11452 -80.62161 682 ft 83 kts 184°
2026-04-26 15:19 28.11038 -80.62183 662 ft 72 kts 201°
2026-04-26 15:19 28.10786 -80.62389 518 ft 70 kts 236°
2026-04-26 15:20 28.10713 -80.62637 407 ft 71 kts 262°
2026-04-26 15:20 28.10715 -80.63152 268 ft 60 kts 264°
2026-04-26 15:20 28.10682 -80.63551 178 ft 53 kts 256°
2026-04-26 15:20 28.10648 -80.63899 118 ft 46 kts 261°
2026-04-26 15:21 28.10627 -80.64236 26 ft 41 kts 263°
2026-04-26 15:21 28.10614 -80.64492 24 ft 29 kts 271°
2026-04-26 15:21 28.10602 -80.64726 24 ft 33 kts 263°
2026-04-26 15:21 28.10665 -80.64850 27 ft 15 kts 358°
2026-04-26 15:22 28.10674 -80.64850 27 ft 0 kts
2026-04-26 15:22 28.10683 -80.64853 27 ft 2 kts 302°
2026-04-26 15:23 28.10725 -80.64919 27 ft 17 kts 332°
2026-04-26 15:23 28.10762 -80.64949 27 ft 0 kts 266°